User: anonymous   Login
Location: Unspecified
(0.0000°N, 0.0000°E)
Time: 00:41:51
(UTC+02:00)
Language:

NOSS 2-2 (E) - Orbit

View from above orbital plane
View from above orbital plane
View from above satellite
View from above satellite

Ground track
Ground track

The orbit data is extracted from the following two-line orbital elements,

1 21809U 91076E   18112.80317961 0.00000140  00000-0  39003-4 0    08
2 21809  63.3572  18.2012 0776000  25.7642 334.2358 13.41411573    06
Epoch (UTC): 22 April 2018 19:16:34
Eccentricity: 0.0776000
inclination: 63.3572°
perigee height: 523 km
apogee height: 1684 km
right ascension of ascending node: 18.2012°
argument of perigee: 25.7642°
revolutions per day: 13.41411573
mean anomaly at epoch: 334.2358°
orbit number at epoch: 0

The dashed part of the orbit path shows where the satellite is in the earth's shadow,  

DLR